Temp
89 89 87 87 88 89 89 89 90 88 87 88 87 87 85 83 80 79 80 81 85 89 93 90 89 91 91 90 93 92 93 88 86 92 91 91 91 80 73 73 72 72 72 72 71 73 73 74 73 73 73 74 75 75 74 73 73 73 73 73 73 73 72 71 71 71 71 71 71 71 71 72 73 73
87 88 88 88 88 89 89 91 92 88 87 87 87 86 86 84 82 81 79 80 86 86 91 93 90 89 90 93 92 93 92 83 87 91 91 92 91 74 74 74 73 72 71 70 70 71 71 71 71 70 71 72 73 73 73 73 72 72 71 72 72 71 71 70 70 70 70 70 70 70 70 71 71 71
87 86 87 87 87 88 89 90 92 89 88 88 87 87 86 85 85 83 81 79 84 88 86 91 94 92 90 94 93 94 93 89 88 91 91 91 81 75 82 73 73 71 69 69 68 68 68 68 69 70 70 71 71 71 71 70 71 70 70 70 70 70 69 68 68 69 69 69 69 69 69 69 70 70
87 86 86 86 86 87 87 88 89 89 89 89 88 88 86 86 86 85 83 80 81 88 89 90 91 93 91 91 91 91 92 91 83 91 91 89 82 90 92 76 70 70 69 68 68 66 66 67 69 70 70 71 71 71 70 69 69 68 68 68 67 67 67 66 67 67 67 68 68 68 68 68 68 68
86 85 85 86 87 87 86 87 89 90 89 89 88 88 87 87 86 85 83 81 82 86 89 88 90 91 90 92 90 90 92 92 92 88 92 91 91 92 92 89 72 69 68 67 66 66 66 67 68 69 70 69 70 70 69 68 67 66 65 65 64 65 65 65 66 66 66 66 66 67 67 67 67 67
87 86 85 86 87 87 86 88 89 90 91 90 90 88 88 87 87 86 84 83 82 81 87 87 90 89 90 88 91 89 89 90 90 90 91 93 92 90 92 92 84 69 68 66 65 66 67 67 67 68 68 67 67 67 67 65 64 64 63 63 63 63 63 63 65 65 65 65 65 66 66 66 66 66
87 86 85 87 88 88 87 87 88 90 89 90 89 89 90 88 88 87 85 83 82 82 84 86 87 88 88 88 88 89 90 89 89 88 91 92 93 91 92 93 90 71 69 66 66 66 66 66 66 66 66 66 65 65 63 63 62 62 62 61 62 62 62 62 63 64 63 64 64 65 64 65 65 65
87 87 86 87 89 88 86 86 87 88 88 87 87 87 87 86 87 87 86 84 83 83 82 84 85 87 86 88 89 90 89 90 89 90 90 92 91 91 93 92 89 76 68 67 67 66 65 65 65 63 64 63 62 62 61 62 62 62 61 61 61 61 61 61 61 63 61 62 62 63 63 63 63 63
86 86 87 88 88 87 85 86 87 88 86 87 87 87 87 86 87 87 86 85 84 82 82 83 86 86 86 87 87 88 88 88 89 89 88 90 90 89 93 95 86 71 67 68 67 67 66 66 64 64 64 64 63 62 62 61 61 61 60 60 60 61 60 61 60 61 60 60 61 60 61 61 62 62
87 87 87 87 87 87 86 87 87 87 86 87 87 86 86 86 86 85 85 85 83 83 83 83 83 86 86 86 86 87 87 86 86 87 88 89 89 88 89 92 94 93 91 89 82 70 70 65 62 64 65 63 63 63 63 63 62 61 59 57 58 59 59 59 60 60 59 60 60 60 60 60 61 62
89 89 89 87 87 86 86 87 87 87 86 87 86 85 85 86 85 85 85 85 84 83 83 84 84 84 86 85 84 87 86 85 85 84 85 85 88 88 87 86 90 90 86 77 71 76 75 72 75 61 62 63 63 64 64 64 62 62 59 58 58 59 58 58 59 59 59 59 59 58 57 58 61 62
90 90 90 90 89 88 87 87 87 87 86 86 86 87 86 86 84 85 85 85 84 83 84 83 84 85 84 84 86 87 85 85 86 86 84 83 84 85 86 87 86 87 86 86 86 74 73 72 67 61 64 65 64 65 69 66 67 63 60 60 61 61 59 58 59 59 58 57 57 57 57 57 59 61
88 89 90 91 91 88 85 83 83 84 83 86 85 85 85 84 84 84 84 84 83 83 83 83 84 83 83 84 84 85 84 84 84 85 85 84 85 85 86 87 87 87 86 86 87 86 87 86 84 84 83 80 75 73 71 71 69 64 61 61 61 61 60 59 59 59 58 58 57 57 56 58 59 61
88 89 90 91 85 82 80 79 77 75 76 78 84 86 86 84 84 83 83 83 83 83 82 83 83 83 84 86 85 85 86 87 86 85 84 83 85 85 85 86 86 86 87 86 83 83 85 86 82 82 82 83 80 82 80 75 72 65 61 61 61 60 60 59 59 59 58 58 57 57 56 57 59 58
87 88 88 89 87 83 80 80 74 74 73 73 74 75 79 82 84 84 83 83 84 82 83 84 83 84 83 84 87 86 88 88 87 86 85 84 84 82 81 80 84 86 85 83 83 82 84 83 82 81 82 83 82 82 77 66 65 62 62 61 61 60 60 60 61 60 58 57 57 57 56 57 58 58
86 87 88 89 91 89 87 87 84 78 74 71 72 72 73 75 77 78 83 83 83 83 82 82 83 84 83 84 85 87 88 86 86 85 84 83 82 82 82 82 81 86 85 83 82 82 81 83 83 81 81 82 83 81 68 64 64 62 61 62 61 61 60 60 60 60 59 59 58 58 57 57 58 57
85 86 86 88 88 91 82 84 87 86 84 74 70 71 72 72 72 70 70 74 83 86 83 83 83 84 84 83 85 86 86 86 84 84 84 83 83 83 82 83 85 86 85 82 80 81 82 82 81 82 80 83 83 79 67 62 64 62 61 61 61 60 60 60 60 59 59 58 57 57 56 55 56 56
86 85 85 85 86 87 86 85 85 85 85 85 82 79 80 82 81 73 69 68 69 75 83 84 83 85 86 83 85 87 87 84 83 84 84 85 84 83 83 85 85 86 87 83 82 81 82 82 83 82 82 83 81 81 70 61 62 62 60 61 60 60 59 59 59 58 58 58 57 56 55 54 54 55
87 86 86 86 86 86 86 86 85 85 85 84 84 84 84 85 86 86 87 85 82 81 81 84 84 85 86 86 87 87 87 86 85 85 85 85 84 84 85 84 84 86 87 84 83 79 83 82 81 82 82 83 82 83 68 62 62 60 60 60 61 59 58 59 58 58 58 57 57 56 55 54 53 53
85 86 86 85 85 85 85 81 74 79 85 85 85 84 85 86 87 89 85 78 79 84 85 85 86 87 87 80 86 87 89 88 86 86 86 86 83 82 81 81 87 86 89 85 83 81 84 84 84 83 84 83 81 81 83 64 62 61 60 61 60 58 57 57 57 57 57 57 56 56 54 53 52 53
86 86 86 85 86 86 85 78 67 69 76 84 84 84 85 86 88 88 90 75 69 69 68 68 69 68 68 67 66 65 65 76 83 85 83 82 86 82 79 82 84 84 88 88 86 85 83 83 82 83 83 81 81 81 82 83 63 61 61 60 58 58 58 56 56 56 57 57 56 56 55 53 53 55
85 85 81 83 85 85 85 73 65 65 74 82 83 83 84 85 85 86 90 89 81 66 64 64 65 66 66 66 65 66 64 63 72 82 80 86 88 82 82 81 83 87 87 86 87 82 83 83 82 81 82 79 80 81 82 81 77 64 62 57 57 58 59 57 56 57 56 57 56 56 54 53 56 73
86 85 82 79 80 82 80 69 64 63 73 82 83 83 84 83 84 87 88 86 85 84 81 80 78 76 73 74 77 79 69 66 72 81 84 88 86 83 82 82 83 81 84 87 85 80 82 81 82 81 78 77 82 83 82 81 82 83 83 80 74 59 63 60 58 56 55 56 56 56 54 52 58 74
84 85 86 81 69 67 67 65 62 60 63 80 83 84 84 84 82 88 86 86 86 85 85 85 84 83 85 85 84 84 84 79 77 81 84 86 86 84 83 84 84 82 84 85 84 81 86 84 81 81 82 79 78 79 80 80 81 83 83 80 81 67 66 65 61 56 56 57 55 55 53 52 56 71
84 85 85 88 74 63 62 62 60 58 58 67 82 83 83 84 84 83 85 85 83 84 84 84 84 85 85 86 87 87 87 86 84 83 83 86 86 85 84 85 85 86 88 87 76 83 81 83 81 80 80 80 82 79 79 79 81 81 81 80 79 79 78 77 74 78 63 56 55 55 53 53 54 61
84 85 86 86 76 62 61 60 59 56 57 59 76 81 69 68 68 80 84 85 85 84 85 85 85 85 85 86 87 89 89 89 88 88 87 85 85 87 89 86 84 84 86 84 71 83 82 80 82 79 79 78 81 81 76 76 79 81 81 82 81 78 78 78 78 76 76 77 75 66 64 56 56 54
85 86 86 85 75 62 58 57 57 57 56 60 70 64 63 63 63 72 83 84 83 83 84 83 82 83 85 85 85 86 87 90 89 89 87 86 85 85 87 88 90 88 89 85 80 84 82 82 84 81 79 79 78 77 78 77 78 79 79 82 80 79 79 79 77 76 77 76 75 61 57 56 57 56
87 86 86 82 69 60 55 54 56 57 58 68 60 58 60 62 66 78 80 80 81 81 81 80 81 82 84 85 85 86 87 88 88 87 87 86 86 85 86 86 85 87 87 85 83 84 83 82 82 82 81 79 78 77 77 81 80 78 78 80 81 82 81 79 78 76 76 76 75 75 75 74 74 73
87 76 68 66 62 60 57 55 56 58 58 56 59 58 59 65 77 78 79 80 81 80 79 80 82 83 84 84 85 86 87 87 87 86 86 87 87 86 85 85 84 84 84 85 83 83 83 82 81 81 80 80 79 80 80 79 79 79 79 77 77 79 79 78 78 77 75 76 75 74 73 73 72 71
70 68 64 62 61 62 64 70 74 76 76 60 57 59 62 73 77 79 80 79 79 79 81 82 82 84 86 86 86 86 86 84 84 85 85 85 84 84 82 79 79 80 82 83 84 83 82 82 82 80 79 79 80 80 78 78 76 80 77 77 79 78 78 78 78 77 75 75 75 74 74 73 71 70
79 76 74 77 69 70 68 68 69 71 73 73 69 70 72 76 79 80 80 81 80 80 81 82 83 85 87 88 85 84 83 82 83 84 82 83 83 82 81 77 77 78 80 83 85 85 84 83 82 81 78 78 79 79 79 80 78 77 78 78 78 76 78 78 77 77 76 76 76 75 75 75 74 72
82 84 75 73 78 78 78 78 79 80 81 80 79 79 79 78 79 79 78 79 82 82 83 84 85 85 85 84 84 84 84 83 83 83 82 81 81 81 79 76 75 78 80 81 82 83 81 83 81 80 80 78 76 77 78 78 78 78 78 78 77 79 79 78 78 77 75 75 76 75 73 75 75 74
80 81 82 82 80 80 79 80 81 83 82 81 82 83 82 82 81 81 81 80 80 81 81 81 82 82 83 83 83 81 81 80 81 82 80 80 79 78 77 75 74 76 77 78 79 79 80 80 80 80 80 80 80 78 76 75 76 78 78 78 78 77 79 80 79 77 75 74 74 77 73 74 75 74
80 79 79 81 81 81 82 82 82 83 84 83 83 83 76 82 84 83 82 82 83 82 81 82 82 82 82 81 81 80 77 77 79 78 73 77 77 75 73 74 74 78 79 80 79 78 77 77 77 76 77 76 77 78 78 77 76 78 79 79 78 77 79 79 78 76 74 75 73 74 76 76 75 75
76 79 79 80 81 81 83 82 83 84 84 84 84 84 84 84 83 81 83 84 82 82 81 81 82 82 81 80 79 76 77 75 74 74 73 74 74 73 73 72 73 72 72 75 77 78 77 75 75 75 73 74 74 75 74 77 78 78 79 78 79 78 77 79 78 75 74 73 75 72 75 77 76 75
76 78 80 81 82 82 82 83 83 85 86 85 85 85 85 84 84 83 83 82 83 82 82 81 80 80 79 76 75 74 73 69 70 70 68 69 69 69 70 69 69 70 72 74 76 77 77 76 75 75 73 73 73 73 74 71 72 80 77 77 78 76 78 78 76 76 75 75 74 73 73 74 77 77
78 79 80 81 82 82 82 83 84 84 85 85 86 86 86 85 85 84 83 82 82 81 81 80 80 78 76 74 72 72 70 69 69 69 69 69 69 68 68 68 69 70 71 74 75 72 73 73 74 75 74 73 71 71 75 75 65 66 78 78 77 78 76 75 74 74 76 76 75 75 74 75 76 77
77 80 81 81 82 83 83 84 84 84 84 84 84 85 86 86 87 85 84 82 81 80 79 79 80 77 74 73 73 72 70 70 70 70 69 70 69 69 68 68 69 70 70 70 72 73 73 72 72 75 75 73 72 72 73 76 76 71 64 75 78 78 77 75 75 76 75 77 76 76 76 75 75 77
77 79 80 81 81 82 83 83 83 84 84 84 83 84 84 85 86 86 83 83 82 80 78 77 77 76 73 74 73 71 70 70 70 70 70 69 69 68 68 68 68 71 70 69 70 70 70 71 74 75 75 75 75 76 78 77 76 82 70 60 76 78 77 76 76 78 78 77 76 75 75 75 72 59
77 79 81 82 82 83 83 84 84 84 84 84 85 85 85 84 84 85 84 81 80 79 78 76 77 73 73 74 74 74 72 71 71 71 70 69 68 68 67 67 68 68 69 68 68 68 70 73 73 72 73 74 77 80 81 81 80 79 77 65 54 68 79 78 76 77 76 77 77 75 75 74 73 73
76 78 80 81 82 83 83 83 84 84 84 84 84 79 83 84 83 84 83 81 77 76 75 76 76 76 75 74 74 73 70 69 69 70 71 69 67 66 66 65 66 67 67 67 68 68 68 68 70 67 74 78 78 78 77 76 74 77 77 78 57 52 55 60 73 76 75 75 74 75 74 74 74 74
78 78 80 81 81 83 84 83 84 84 84 84 85 84 82 82 81 75 79 75 77 76 76 76 76 75 75 75 74 71 71 71 69 69 69 69 67 66 65 65 66 66 66 67 67 69 69 71 72 72 73 75 74 73 72 74 75 77 78 79 75 59 54 52 50 54 68 75 75 73 73 73 73 71
76 77 77 78 79 79 81 81 82 83 84 84 84 83 83 83 83 80 80 78 76 75 76 75 75 74 74 74 74 72 72 71 71 70 70 68 68 66 65 65 67 69 69 70 72 72 70 70 71 71 72 74 74 74 73 75 75 76 76 77 76 75 70 56 54 53 53 53 54 62 70 71 72 69
75 75 75 76 77 77 78 79 80 81 82 83 82 82 82 83 82 80 78 77 76 75 76 75 74 72 72 73 73 72 71 73 73 71 69 68 67 67 66 66 66 68 70 71 70 71 69 70 71 72 72 72 74 73 73 74 75 76 78 79 77 75 75 75 71 59 57 56 55 54 53 53 56 56
76 76 75 75 76 77 77 77 77 78 79 80 81 81 80 80 80 81 80 78 77 77 75 74 72 72 72 72 72 71 70 66 69 72 71 70 69 67 68 69 68 68 68 70 69 68 69 70 72 73 74 75 74 73 73 74 75 76 77 76 75 75 77 75 74 74 74 74 61 53 54 55 56 55
MSLP
1022.45 1022.57 1022.69 1022.85 1022.69 1022.57 1022.41 1022.41 1022.41 1022.61 1022.69 1022.73 1022.89 1023.01 1023.57 1023.93 1024.89 1025.25 1025.05 1024.45 1023.89 1022.73 1021.97 1022.69 1021.93 1021.21 1021.09 1021.09 1020.61 1020.61 1020.49 1020.45 1020.45 1020.13 1020.01 1019.93 1019.77 1019.85 1019.97 1019.97 1019.97 1019.97 1020.01 1019.97 1019.85 1019.65 1019.57 1019.57 1019.53 1019.53 1019.49 1019.45 1019.37 1019.29 1019.29 1019.25 1019.21 1019.13 1019.05 1018.97 1018.81 1018.69 1018.57 1018.41 1018.21 1018.01 1017.77 1017.57 1017.37 1017.17 1016.93 1016.69 1016.49 1016.37
1022.37 1022.41 1022.49 1022.53 1022.65 1022.37 1022.41 1022.33 1022.21 1022.45 1022.57 1022.65 1022.81 1022.93 1022.93 1023.17 1024.17 1024.53 1025.21 1024.73 1023.29 1023.17 1022.01 1021.73 1022.13 1021.41 1021.29 1020.77 1020.73 1020.49 1020.49 1020.41 1020.33 1020.13 1019.97 1019.81 1019.77 1019.89 1019.89 1019.93 1019.97 1020.05 1020.05 1020.01 1019.81 1019.69 1019.65 1019.65 1019.73 1019.73 1019.69 1019.61 1019.57 1019.53 1019.53 1019.49 1019.45 1019.37 1019.29 1019.17 1019.05 1018.89 1018.73 1018.57 1018.37 1018.17 1017.97 1017.73 1017.53 1017.33 1017.09 1016.81 1016.57 1016.41
1022.33 1022.57 1022.65 1022.53 1022.61 1022.41 1022.37 1022.25 1022.09 1022.25 1022.29 1022.49 1022.57 1022.69 1022.73 1022.97 1023.17 1023.73 1024.21 1024.97 1023.33 1022.53 1023.09 1021.97 1021.21 1021.45 1021.21 1020.81 1020.73 1020.49 1020.29 1020.25 1020.21 1020.05 1019.89 1019.77 1019.77 1019.73 1019.69 1019.93 1020.05 1020.13 1020.09 1019.97 1019.81 1019.77 1019.77 1019.85 1019.89 1019.89 1019.85 1019.81 1019.81 1019.81 1019.81 1019.77 1019.69 1019.61 1019.49 1019.37 1019.17 1019.01 1018.89 1018.77 1018.53 1018.33 1018.13 1017.89 1017.69 1017.49 1017.25 1016.97 1016.73 1016.49
1022.25 1022.45 1022.65 1022.61 1022.61 1022.41 1022.45 1022.41 1022.25 1022.25 1022.13 1022.21 1022.37 1022.49 1022.65 1022.73 1022.77 1023.05 1023.73 1024.37 1024.13 1022.41 1022.33 1022.01 1021.49 1021.05 1021.13 1020.85 1021.01 1020.81 1020.41 1020.05 1020.13 1019.97 1019.81 1019.69 1019.61 1019.45 1019.41 1020.01 1020.21 1020.21 1020.09 1019.93 1019.89 1019.89 1019.93 1020.01 1020.05 1020.05 1020.05 1020.05 1020.09 1020.09 1020.05 1019.97 1019.93 1019.81 1019.65 1019.49 1019.33 1019.21 1019.05 1018.89 1018.65 1018.45 1018.25 1018.05 1017.85 1017.61 1017.37 1017.13 1016.89 1016.65
1022.13 1022.33 1022.49 1022.45 1022.33 1022.25 1022.53 1022.41 1022.21 1022.13 1022.13 1022.13 1022.21 1022.25 1022.41 1022.57 1022.57 1022.97 1023.49 1024.05 1023.81 1022.57 1021.65 1021.89 1021.69 1021.13 1021.05 1021.09 1020.81 1020.97 1020.61 1020.37 1020.09 1019.85 1019.65 1019.57 1019.61 1019.53 1019.45 1019.65 1020.29 1020.25 1020.13 1020.05 1020.05 1020.05 1020.13 1020.17 1020.21 1020.21 1020.25 1020.33 1020.33 1020.33 1020.25 1020.17 1020.09 1019.97 1019.85 1019.69 1019.57 1019.41 1019.25 1019.05 1018.81 1018.61 1018.45 1018.21 1017.97 1017.73 1017.53 1017.25 1017.05 1016.77
1021.97 1022.09 1022.33 1022.33 1022.21 1022.09 1022.37 1022.25 1022.21 1022.01 1021.97 1022.01 1022.09 1022.21 1022.29 1022.41 1022.53 1022.41 1023.17 1023.45 1023.69 1023.69 1022.25 1022.09 1021.33 1021.37 1020.93 1021.61 1020.69 1021.13 1021.05 1020.73 1020.37 1020.25 1019.89 1019.53 1019.53 1019.65 1019.45 1019.41 1020.13 1020.33 1020.13 1020.13 1020.17 1020.21 1020.25 1020.29 1020.33 1020.41 1020.49 1020.57 1020.57 1020.53 1020.45 1020.37 1020.29 1020.17 1020.09 1019.97 1019.81 1019.65 1019.45 1019.21 1019.01 1018.81 1018.61 1018.33 1018.05 1017.81 1017.57 1017.37 1017.13 1016.89
1021.73 1022.01 1022.13 1022.05 1021.89 1021.81 1022.13 1022.13 1022.01 1021.77 1021.97 1021.81 1022.05 1022.09 1021.93 1022.25 1022.17 1022.21 1022.53 1023.13 1023.61 1023.37 1022.89 1022.01 1022.01 1021.61 1021.33 1021.53 1021.33 1020.89 1020.69 1020.53 1020.37 1020.49 1020.17 1019.93 1019.61 1019.53 1019.45 1019.33 1019.89 1020.33 1020.17 1020.25 1020.29 1020.33 1020.37 1020.41 1020.49 1020.57 1020.65 1020.73 1020.77 1020.69 1020.61 1020.53 1020.45 1020.37 1020.29 1020.17 1020.01 1019.85 1019.61 1019.41 1019.21 1019.01 1018.81 1018.49 1018.17 1017.89 1017.65 1017.45 1017.21 1016.97
1021.61 1021.77 1021.93 1021.77 1021.57 1021.57 1021.93 1021.93 1021.85 1021.73 1021.73 1021.89 1022.01 1022.09 1021.97 1022.09 1022.17 1022.05 1022.25 1022.53 1022.97 1022.97 1023.25 1022.33 1022.17 1021.61 1021.73 1021.33 1020.89 1020.73 1020.61 1020.57 1020.53 1020.37 1020.13 1019.73 1019.81 1019.65 1019.37 1019.33 1019.89 1020.37 1020.33 1020.33 1020.37 1020.41 1020.49 1020.53 1020.61 1020.65 1020.73 1020.85 1020.85 1020.81 1020.69 1020.61 1020.57 1020.49 1020.41 1020.29 1020.13 1019.93 1019.73 1019.53 1019.37 1019.17 1018.97 1018.65 1018.33 1018.01 1017.73 1017.53 1017.29 1017.05
1021.29 1021.45 1021.53 1021.41 1021.33 1021.41 1021.77 1021.69 1021.69 1021.49 1021.73 1021.69 1021.77 1021.97 1021.85 1021.97 1021.89 1021.93 1022.05 1022.29 1022.37 1022.81 1023.01 1022.49 1021.73 1021.45 1021.41 1021.13 1021.01 1020.77 1021.17 1020.85 1020.57 1020.29 1020.33 1020.13 1019.97 1019.85 1019.37 1019.05 1019.73 1020.25 1020.29 1020.37 1020.41 1020.45 1020.49 1020.57 1020.65 1020.69 1020.77 1020.81 1020.85 1020.77 1020.69 1020.61 1020.57 1020.57 1020.49 1020.33 1020.17 1019.97 1019.77 1019.57 1019.37 1019.21 1019.05 1018.77 1018.45 1018.13 1017.89 1017.65 1017.41 1017.13
1020.81 1021.01 1021.09 1021.01 1021.05 1021.17 1021.45 1021.41 1021.25 1021.25 1021.49 1021.53 1021.69 1021.81 1021.81 1021.77 1021.77 1022.01 1022.01 1022.05 1022.25 1022.41 1022.45 1022.37 1022.21 1021.53 1021.65 1021.45 1021.25 1020.85 1020.89 1021.21 1021.25 1020.85 1020.37 1020.05 1019.93 1020.05 1019.93 1019.57 1019.29 1019.41 1019.65 1019.85 1020.17 1020.29 1020.33 1020.53 1020.61 1020.65 1020.69 1020.73 1020.73 1020.69 1020.61 1020.57 1020.57 1020.57 1020.49 1020.37 1020.21 1020.05 1019.85 1019.65 1019.45 1019.29 1019.09 1018.81 1018.49 1018.21 1018.01 1017.77 1017.49 1017.25
1020.29 1020.37 1020.45 1020.61 1020.65 1020.81 1020.85 1020.97 1021.01 1021.05 1021.21 1021.33 1021.45 1021.53 1021.65 1021.57 1021.77 1021.89 1021.85 1021.85 1022.05 1022.13 1022.21 1021.97 1021.81 1021.85 1021.29 1021.37 1021.73 1020.85 1020.61 1020.89 1021.01 1021.33 1021.21 1021.05 1020.21 1020.05 1020.21 1020.33 1019.61 1019.57 1020.05 1020.09 1020.01 1019.85 1019.93 1020.17 1020.25 1020.57 1020.53 1020.53 1020.53 1020.49 1020.45 1020.49 1020.53 1020.49 1020.45 1020.33 1020.13 1020.01 1019.85 1019.69 1019.53 1019.37 1019.13 1018.85 1018.57 1018.33 1018.09 1017.89 1017.57 1017.33
1019.89 1019.89 1019.93 1019.97 1020.01 1020.13 1020.21 1020.37 1020.45 1020.53 1020.89 1020.93 1021.25 1021.09 1021.25 1021.41 1021.65 1021.77 1021.61 1021.69 1021.77 1021.97 1021.93 1021.97 1021.93 1021.61 1021.69 1021.37 1020.89 1020.61 1020.81 1021.17 1021.01 1020.81 1021.17 1021.65 1021.17 1020.73 1020.21 1020.05 1020.25 1019.89 1019.93 1020.01 1020.05 1020.17 1020.13 1020.17 1020.29 1020.33 1020.25 1020.25 1020.29 1020.25 1020.17 1020.33 1020.37 1020.41 1020.37 1020.25 1020.09 1019.93 1019.81 1019.65 1019.53 1019.37 1019.17 1018.93 1018.65 1018.41 1018.17 1017.97 1017.65 1017.41
1019.65 1019.61 1019.53 1019.49 1019.41 1019.45 1019.69 1019.81 1019.97 1020.05 1020.21 1020.61 1021.01 1020.97 1020.97 1021.25 1021.45 1021.53 1021.45 1021.53 1021.65 1021.77 1021.85 1021.89 1021.57 1021.73 1021.69 1021.41 1021.41 1021.33 1021.37 1021.49 1021.49 1020.85 1020.85 1021.17 1020.77 1020.57 1020.49 1020.01 1019.73 1019.73 1019.93 1020.01 1019.81 1019.85 1019.61 1019.69 1019.81 1019.73 1019.85 1019.97 1019.93 1020.01 1020.05 1020.05 1020.17 1020.33 1020.29 1020.17 1020.05 1019.89 1019.77 1019.65 1019.57 1019.41 1019.21 1018.93 1018.69 1018.49 1018.29 1018.05 1017.77 1017.53
1019.33 1019.25 1019.17 1018.97 1019.13 1019.33 1019.49 1019.69 1019.85 1020.01 1020.13 1020.21 1020.25 1020.41 1020.61 1020.89 1021.13 1021.25 1021.37 1021.41 1021.45 1021.65 1021.93 1021.77 1021.65 1021.73 1021.57 1021.17 1020.97 1021.13 1020.81 1020.49 1020.45 1020.77 1020.93 1021.29 1020.77 1020.65 1020.65 1020.17 1019.93 1019.57 1019.61 1019.85 1020.29 1020.05 1019.53 1019.61 1019.89 1019.77 1019.89 1019.77 1019.77 1019.73 1019.85 1020.13 1020.21 1020.29 1020.25 1020.13 1020.01 1019.89 1019.77 1019.65 1019.57 1019.41 1019.21 1018.97 1018.77 1018.57 1018.37 1018.13 1017.89 1017.65
1019.21 1019.01 1018.89 1018.81 1018.81 1019.09 1019.33 1019.41 1019.57 1019.73 1019.93 1020.09 1020.21 1020.25 1020.25 1020.21 1020.49 1020.85 1021.05 1021.09 1021.05 1021.45 1021.57 1021.29 1021.33 1021.33 1021.37 1020.97 1020.49 1020.61 1020.37 1020.13 1020.37 1020.57 1020.61 1020.81 1020.85 1021.17 1021.45 1021.69 1020.25 1019.33 1019.61 1019.93 1020.05 1020.21 1019.57 1019.57 1019.93 1019.85 1019.77 1019.73 1019.73 1019.69 1020.05 1020.29 1020.29 1020.25 1020.21 1020.09 1019.97 1019.85 1019.73 1019.65 1019.53 1019.41 1019.21 1019.01 1018.81 1018.61 1018.41 1018.25 1018.01 1017.81
1018.81 1018.81 1018.69 1018.57 1018.41 1018.49 1018.65 1018.73 1019.01 1019.37 1019.61 1019.85 1019.97 1020.05 1020.13 1020.17 1020.13 1020.05 1020.33 1020.69 1020.97 1021.05 1021.25 1021.29 1021.05 1020.97 1020.97 1020.73 1020.45 1020.29 1020.13 1020.29 1020.21 1020.21 1020.33 1020.61 1020.81 1020.93 1021.09 1020.89 1021.05 1019.53 1019.25 1019.89 1020.13 1020.09 1019.69 1019.49 1019.69 1019.89 1019.85 1019.69 1019.65 1019.85 1020.13 1020.25 1020.25 1020.25 1020.17 1020.09 1019.97 1019.85 1019.73 1019.61 1019.53 1019.41 1019.21 1019.01 1018.89 1018.69 1018.49 1018.29 1018.09 1017.93
1018.41 1018.45 1018.53 1018.45 1018.21 1018.01 1018.29 1018.57 1018.57 1018.73 1019.01 1019.37 1019.61 1019.73 1019.89 1019.97 1019.93 1019.93 1019.93 1019.93 1020.13 1020.09 1020.61 1020.77 1020.69 1020.53 1020.37 1020.57 1020.25 1019.85 1019.93 1019.73 1020.41 1020.21 1020.37 1020.25 1020.29 1020.29 1020.53 1020.33 1019.89 1019.33 1019.05 1019.69 1020.09 1020.09 1019.61 1019.57 1019.73 1019.77 1019.69 1019.45 1019.49 1019.77 1020.05 1020.21 1020.25 1020.25 1020.21 1020.09 1020.01 1019.89 1019.77 1019.65 1019.57 1019.41 1019.21 1019.05 1018.89 1018.73 1018.57 1018.37 1018.13 1017.93
1017.93 1018.05 1018.17 1018.25 1018.21 1017.93 1017.97 1018.13 1018.33 1018.49 1018.65 1018.85 1019.17 1019.49 1019.57 1019.49 1019.37 1019.53 1019.69 1019.81 1019.93 1019.97 1020.01 1020.05 1020.29 1019.65 1019.53 1020.01 1019.65 1019.25 1019.21 1019.89 1020.25 1020.17 1020.17 1019.77 1019.97 1020.05 1020.01 1019.37 1019.29 1018.85 1018.65 1019.61 1019.65 1019.97 1019.49 1019.37 1019.45 1019.65 1019.45 1019.25 1019.53 1019.53 1019.85 1020.09 1020.17 1020.17 1020.13 1020.05 1020.01 1019.93 1019.85 1019.73 1019.61 1019.45 1019.21 1019.01 1018.89 1018.73 1018.57 1018.37 1018.13 1017.89
1017.37 1017.45 1017.53 1017.61 1017.69 1017.65 1017.69 1017.65 1017.89 1018.17 1018.37 1018.61 1018.73 1018.85 1018.93 1018.85 1018.65 1018.57 1018.69 1018.89 1019.17 1019.41 1019.45 1019.41 1019.21 1019.01 1018.85 1018.93 1018.89 1018.81 1018.77 1019.05 1019.13 1019.21 1019.41 1019.33 1019.33 1019.25 1018.97 1019.13 1018.97 1018.89 1018.45 1018.85 1019.33 1020.45 1019.25 1019.09 1019.53 1019.41 1019.21 1019.21 1019.29 1019.21 1019.69 1019.85 1019.97 1020.05 1020.01 1019.97 1019.97 1019.97 1019.89 1019.81 1019.65 1019.45 1019.25 1019.05 1018.89 1018.77 1018.57 1018.33 1018.05 1017.81
1016.81 1016.89 1017.01 1017.21 1017.25 1017.21 1017.29 1017.29 1017.57 1017.77 1017.89 1018.21 1018.49 1018.65 1018.53 1018.41 1018.17 1017.97 1017.65 1017.69 1017.89 1018.09 1018.25 1018.37 1018.37 1018.25 1018.21 1018.29 1018.41 1018.37 1018.37 1018.45 1018.57 1018.69 1018.69 1018.77 1019.13 1019.57 1019.81 1019.93 1018.81 1018.89 1018.01 1018.37 1019.01 1019.61 1019.09 1018.69 1019.09 1019.13 1018.85 1019.01 1019.29 1019.13 1019.09 1019.57 1019.73 1019.85 1019.81 1019.89 1019.97 1019.97 1019.93 1019.85 1019.73 1019.53 1019.29 1019.09 1018.97 1018.77 1018.57 1018.29 1017.93 1017.61
1016.29 1016.33 1016.41 1016.57 1016.69 1016.73 1016.81 1016.85 1017.25 1017.57 1017.85 1018.05 1018.21 1018.29 1018.29 1018.05 1017.85 1017.65 1017.17 1017.25 1017.49 1017.69 1017.81 1017.89 1017.93 1018.01 1018.09 1018.21 1018.29 1018.37 1018.49 1018.61 1018.45 1018.73 1019.29 1019.49 1018.93 1019.61 1020.13 1019.61 1019.17 1018.93 1018.13 1018.13 1018.29 1018.73 1019.05 1018.61 1018.89 1019.05 1018.93 1019.05 1019.17 1019.13 1019.01 1018.97 1019.41 1019.57 1019.65 1019.77 1019.89 1019.93 1019.93 1019.89 1019.77 1019.57 1019.33 1019.13 1018.93 1018.73 1018.53 1018.21 1017.73 1017.41
1015.81 1015.77 1015.93 1016.05 1016.17 1016.29 1016.25 1016.33 1016.89 1017.25 1017.61 1017.89 1017.93 1018.01 1018.05 1018.05 1017.93 1017.53 1016.97 1016.89 1017.13 1017.33 1017.57 1017.73 1017.81 1017.89 1018.01 1018.09 1018.21 1018.25 1018.37 1018.61 1018.69 1019.01 1019.57 1018.53 1018.37 1019.29 1019.29 1019.69 1019.05 1018.29 1018.01 1017.93 1017.73 1018.93 1018.81 1018.45 1018.61 1019.05 1018.85 1019.09 1019.01 1018.89 1018.77 1018.81 1019.01 1019.25 1019.41 1019.61 1019.73 1019.81 1019.85 1019.85 1019.73 1019.57 1019.41 1019.21 1018.97 1018.73 1018.41 1018.01 1017.53 1017.01
1015.41 1015.33 1015.37 1015.61 1015.69 1015.69 1015.69 1015.97 1016.45 1016.89 1017.17 1017.29 1017.37 1017.45 1017.61 1017.73 1017.61 1017.01 1016.73 1016.97 1017.17 1017.33 1017.65 1017.69 1017.73 1017.85 1017.81 1017.85 1017.89 1017.69 1017.81 1018.21 1018.41 1018.25 1018.21 1017.81 1018.29 1018.93 1018.85 1018.89 1018.85 1019.17 1018.49 1017.41 1017.41 1018.97 1018.57 1018.69 1018.57 1018.81 1019.49 1019.73 1018.73 1018.49 1018.61 1018.77 1018.69 1018.69 1018.77 1019.01 1019.33 1019.61 1019.65 1019.65 1019.57 1019.45 1019.33 1019.17 1019.01 1018.85 1018.61 1018.25 1017.61 1017.05
1015.09 1014.97 1014.89 1014.89 1015.17 1015.37 1015.49 1015.65 1016.01 1016.45 1016.65 1016.69 1016.65 1016.77 1017.09 1017.21 1017.17 1016.21 1016.41 1016.45 1016.65 1016.89 1017.01 1017.09 1017.09 1017.21 1017.05 1017.09 1017.13 1017.17 1017.25 1017.57 1017.73 1017.69 1017.57 1017.57 1017.73 1018.25 1018.41 1018.29 1018.37 1018.81 1018.29 1017.37 1017.17 1018.25 1017.69 1017.85 1018.53 1018.25 1018.49 1019.29 1019.65 1019.01 1018.69 1018.73 1018.61 1018.57 1018.61 1018.89 1018.93 1019.25 1019.29 1019.33 1019.33 1019.33 1019.25 1019.17 1019.05 1018.93 1018.77 1018.53 1018.01 1017.41
1014.81 1014.69 1014.45 1014.13 1014.29 1014.81 1015.09 1015.29 1015.53 1016.01 1016.25 1016.25 1016.21 1016.25 1016.41 1016.17 1015.81 1015.81 1016.25 1016.29 1016.45 1016.73 1016.85 1016.97 1017.01 1016.97 1016.89 1016.85 1016.73 1016.69 1016.69 1016.73 1016.89 1017.05 1017.09 1017.01 1017.09 1017.49 1017.85 1017.97 1017.93 1017.69 1017.13 1016.65 1016.93 1017.49 1018.13 1017.81 1018.17 1018.37 1018.57 1018.69 1018.61 1018.93 1018.73 1018.69 1018.57 1018.57 1018.61 1018.69 1018.89 1018.97 1018.97 1019.05 1019.01 1018.93 1019.05 1019.13 1019.05 1019.01 1018.89 1018.69 1018.49 1018.09
1014.13 1013.97 1013.85 1013.77 1013.73 1014.17 1014.53 1014.77 1015.09 1015.53 1015.89 1016.01 1016.09 1015.73 1015.61 1015.61 1015.85 1016.05 1015.97 1016.13 1016.29 1016.49 1016.65 1016.69 1016.77 1016.77 1016.81 1016.73 1016.53 1016.33 1016.21 1016.17 1016.17 1016.29 1016.45 1016.61 1016.61 1016.49 1016.49 1016.89 1017.37 1017.53 1017.01 1016.21 1016.53 1017.05 1017.57 1018.01 1017.65 1018.21 1018.45 1018.81 1018.57 1018.49 1019.17 1019.13 1018.69 1018.49 1018.41 1018.37 1018.57 1018.81 1018.85 1018.93 1018.97 1019.09 1019.05 1018.89 1018.81 1018.93 1018.89 1018.81 1018.65 1018.49
1013.37 1013.21 1013.21 1013.09 1013.37 1013.81 1014.09 1014.41 1014.65 1015.01 1015.45 1015.93 1015.81 1015.45 1015.53 1015.69 1015.81 1016.05 1016.09 1016.13 1016.29 1016.41 1016.49 1016.61 1016.85 1016.73 1016.53 1016.49 1016.41 1016.21 1016.09 1015.77 1015.69 1015.85 1015.89 1015.97 1016.01 1015.97 1015.77 1015.53 1015.57 1015.93 1015.69 1016.01 1016.21 1016.49 1016.97 1017.33 1016.93 1017.53 1018.09 1018.09 1018.49 1018.69 1018.73 1018.97 1018.89 1018.49 1018.53 1018.37 1018.41 1018.53 1018.61 1018.69 1018.97 1019.05 1019.01 1019.01 1018.93 1018.97 1018.81 1018.73 1018.57 1018.53
1012.61 1012.69 1012.69 1012.77 1013.05 1013.41 1013.69 1013.93 1014.17 1014.45 1015.09 1015.25 1015.13 1015.33 1015.37 1015.57 1015.97 1016.17 1016.09 1016.17 1016.21 1016.37 1016.49 1016.69 1016.65 1016.49 1016.09 1015.97 1015.89 1015.73 1015.53 1015.41 1015.37 1015.45 1015.45 1015.49 1015.45 1015.49 1015.45 1015.37 1015.45 1015.37 1015.49 1015.81 1016.01 1016.25 1016.49 1016.85 1016.97 1016.85 1017.09 1017.77 1018.25 1018.57 1018.77 1018.01 1018.09 1018.45 1018.57 1018.21 1018.17 1018.21 1018.29 1018.49 1018.73 1018.89 1018.89 1018.89 1018.85 1018.77 1018.69 1018.57 1018.41 1018.17
1011.93 1012.01 1012.25 1012.53 1012.81 1013.01 1013.25 1013.49 1013.81 1014.21 1014.61 1014.73 1014.81 1015.01 1015.17 1015.61 1015.85 1015.89 1015.89 1015.85 1015.93 1016.21 1016.33 1016.21 1016.01 1015.73 1015.57 1015.33 1015.05 1014.73 1014.77 1014.85 1014.97 1015.25 1015.25 1015.05 1015.09 1015.09 1015.25 1015.33 1015.37 1015.45 1015.53 1015.53 1015.77 1015.93 1016.13 1016.41 1016.73 1016.77 1017.01 1017.17 1017.61 1017.65 1017.77 1018.17 1018.13 1018.29 1018.25 1018.49 1018.69 1018.33 1018.29 1018.37 1018.45 1018.69 1018.77 1018.73 1018.81 1018.85 1018.85 1018.81 1018.69 1018.49
1011.77 1011.97 1012.21 1012.41 1012.53 1012.73 1012.93 1013.37 1013.73 1013.81 1013.77 1014.25 1014.53 1014.73 1015.21 1015.45 1015.21 1015.17 1015.29 1015.49 1015.69 1015.77 1015.57 1015.45 1015.45 1015.13 1014.73 1014.57 1014.29 1014.29 1014.49 1014.89 1015.17 1015.17 1015.33 1015.33 1015.37 1015.41 1015.69 1016.01 1016.05 1015.73 1015.53 1015.41 1015.53 1015.69 1015.85 1016.05 1016.25 1016.57 1016.97 1017.17 1017.09 1017.37 1017.53 1017.89 1018.33 1017.93 1018.17 1018.33 1018.09 1018.09 1018.17 1018.17 1018.25 1018.37 1018.53 1018.65 1018.61 1018.65 1018.61 1018.61 1018.69 1018.61
1011.81 1011.93 1012.13 1012.13 1012.21 1012.29 1012.41 1012.65 1012.73 1012.97 1013.17 1013.73 1014.37 1014.73 1014.77 1014.57 1014.41 1014.37 1014.53 1014.65 1014.85 1014.89 1014.89 1014.73 1014.57 1014.29 1014.01 1013.77 1014.09 1014.45 1014.61 1014.81 1014.69 1014.57 1014.97 1015.25 1015.25 1015.33 1015.61 1016.17 1016.33 1016.13 1015.57 1015.13 1015.13 1015.21 1015.49 1015.65 1015.85 1016.17 1016.97 1017.13 1017.05 1017.05 1017.09 1017.25 1017.77 1017.97 1017.97 1017.89 1018.01 1018.45 1018.01 1017.93 1018.05 1018.17 1018.25 1018.29 1018.29 1018.33 1018.33 1018.29 1018.33 1018.37
1011.37 1011.53 1011.57 1011.89 1012.13 1012.29 1012.53 1012.65 1012.81 1012.81 1012.85 1012.97 1013.25 1013.49 1013.61 1013.73 1013.65 1013.65 1013.69 1013.85 1013.89 1013.89 1013.81 1013.81 1013.73 1013.81 1013.85 1014.09 1014.01 1013.97 1014.17 1014.25 1014.21 1014.21 1014.57 1014.93 1015.13 1015.09 1015.53 1016.21 1016.21 1015.81 1015.65 1015.49 1015.33 1015.13 1015.25 1015.33 1015.65 1015.89 1016.21 1016.57 1017.09 1017.05 1017.01 1017.21 1017.45 1017.49 1017.57 1017.61 1017.73 1017.69 1017.65 1017.89 1017.85 1017.89 1018.09 1018.17 1018.09 1018.17 1018.29 1018.09 1018.17 1018.17
1011.09 1011.33 1011.45 1011.53 1011.73 1011.97 1012.25 1012.29 1012.29 1012.25 1012.45 1012.57 1012.49 1012.61 1012.77 1012.89 1013.09 1013.29 1013.45 1013.65 1013.57 1013.37 1013.45 1013.61 1013.69 1013.77 1013.69 1013.69 1013.61 1013.85 1014.09 1014.13 1014.09 1013.85 1014.21 1014.29 1014.73 1014.97 1015.25 1015.85 1015.89 1015.89 1015.89 1015.65 1015.37 1015.33 1015.25 1015.33 1015.45 1015.69 1015.93 1016.09 1016.21 1016.49 1017.01 1017.53 1017.37 1017.13 1017.33 1017.37 1017.49 1017.65 1017.53 1017.45 1017.61 1017.77 1017.97 1018.13 1018.13 1017.77 1018.09 1018.01 1017.93 1018.05
1011.05 1011.17 1011.37 1011.25 1011.29 1011.41 1011.53 1011.69 1011.69 1011.69 1011.77 1011.97 1012.13 1012.01 1012.05 1012.17 1012.25 1012.37 1012.53 1012.57 1012.53 1012.57 1012.85 1012.89 1013.13 1013.29 1013.29 1013.45 1013.53 1013.73 1013.93 1013.93 1013.81 1013.61 1013.81 1013.97 1014.01 1014.69 1015.25 1015.53 1015.49 1015.13 1015.05 1014.93 1015.05 1015.09 1015.29 1015.49 1015.77 1016.05 1016.13 1016.33 1016.29 1016.33 1016.45 1016.85 1017.05 1016.89 1016.85 1016.93 1017.13 1017.41 1017.21 1017.25 1017.45 1017.65 1017.85 1017.89 1018.01 1017.89 1017.61 1017.57 1017.65 1017.73
1011.17 1010.93 1010.97 1010.85 1010.81 1010.81 1010.81 1010.93 1010.93 1010.97 1011.17 1011.25 1011.33 1011.29 1011.25 1011.33 1011.49 1011.69 1011.77 1011.69 1011.73 1012.01 1012.33 1012.49 1012.57 1012.69 1012.93 1013.21 1013.33 1013.61 1013.61 1013.77 1013.77 1013.61 1013.37 1013.17 1013.21 1013.61 1014.25 1015.17 1015.53 1015.81 1016.05 1015.49 1015.05 1014.69 1014.89 1015.53 1015.97 1016.53 1016.85 1016.93 1017.05 1016.65 1016.05 1016.01 1016.41 1016.57 1016.57 1016.69 1016.77 1016.97 1017.09 1017.01 1017.25 1017.49 1017.69 1017.77 1017.65 1017.89 1017.53 1017.17 1017.21 1017.37
1010.45 1010.17 1010.21 1010.21 1010.21 1010.21 1010.41 1010.25 1010.29 1010.37 1010.45 1010.49 1010.53 1010.53 1010.65 1010.65 1010.61 1010.85 1011.01 1010.89 1011.21 1011.53 1011.81 1012.05 1012.25 1012.33 1012.53 1012.81 1012.89 1013.09 1013.65 1014.05 1014.05 1013.93 1013.97 1013.93 1013.81 1013.49 1013.37 1013.73 1014.41 1015.29 1015.69 1015.61 1015.01 1014.45 1014.49 1015.05 1015.57 1016.25 1016.85 1017.05 1017.21 1017.13 1016.61 1015.69 1015.77 1015.93 1016.41 1016.57 1016.45 1016.69 1016.73 1016.81 1017.09 1017.21 1017.45 1017.49 1017.49 1017.65 1017.69 1017.37 1017.01 1016.93
1009.89 1009.77 1009.73 1009.73 1009.65 1009.65 1009.73 1009.65 1009.77 1009.85 1009.85 1009.81 1009.77 1009.69 1009.77 1009.85 1009.77 1009.81 1009.81 1010.13 1010.61 1010.85 1011.05 1011.33 1011.57 1011.69 1012.01 1012.17 1012.45 1013.01 1013.45 1013.45 1013.33 1013.45 1013.89 1013.89 1014.09 1014.37 1014.61 1014.57 1014.53 1014.49 1014.77 1014.97 1014.77 1014.85 1014.93 1014.93 1014.97 1015.57 1016.17 1016.65 1016.97 1016.89 1016.05 1015.69 1015.81 1015.61 1015.69 1016.09 1016.17 1016.17 1016.49 1016.77 1017.13 1017.33 1017.13 1017.09 1017.25 1017.25 1017.25 1017.09 1016.93 1016.73
1009.45 1009.17 1009.17 1009.05 1009.01 1008.93 1008.85 1008.93 1009.09 1009.29 1009.29 1009.25 1009.21 1009.13 1009.05 1008.97 1008.97 1009.09 1009.17 1009.73 1010.09 1010.33 1010.65 1010.93 1010.89 1011.13 1011.37 1011.57 1012.13 1012.77 1012.81 1012.57 1012.69 1013.25 1013.49 1013.53 1013.85 1014.13 1014.29 1014.61 1014.57 1014.49 1014.53 1014.77 1014.81 1014.37 1014.37 1014.85 1015.01 1015.05 1015.45 1015.97 1016.29 1016.37 1016.21 1015.53 1015.65 1015.69 1015.41 1015.49 1015.81 1015.85 1016.05 1016.57 1016.85 1016.89 1016.89 1016.77 1016.93 1016.81 1016.85 1017.01 1016.89 1016.61
1008.89 1008.73 1008.57 1008.49 1008.37 1008.29 1008.37 1008.37 1008.53 1008.65 1008.61 1008.61 1008.65 1008.69 1008.69 1008.69 1008.65 1008.73 1008.93 1009.09 1009.25 1009.65 1010.05 1010.33 1010.49 1010.73 1011.09 1011.25 1011.53 1011.93 1012.17 1012.33 1012.57 1012.69 1012.97 1013.17 1013.13 1013.25 1013.49 1013.89 1014.29 1013.93 1014.05 1014.53 1014.49 1014.45 1014.49 1014.77 1014.89 1014.85 1014.93 1015.13 1015.25 1015.13 1014.97 1015.25 1015.37 1014.57 1014.81 1015.05 1015.17 1015.57 1015.81 1016.09 1016.29 1016.25 1016.37 1016.53 1016.61 1016.69 1016.69 1016.53 1016.61 1016.89
1008.09 1007.81 1007.61 1007.53 1007.53 1007.49 1007.57 1007.61 1007.73 1007.69 1007.81 1007.77 1007.81 1007.85 1008.09 1008.29 1008.25 1008.29 1008.37 1008.61 1008.85 1009.17 1009.49 1009.81 1010.01 1010.41 1010.73 1010.69 1010.93 1011.13 1011.49 1011.65 1011.77 1011.89 1012.13 1012.25 1012.33 1012.53 1012.77 1012.97 1013.17 1013.13 1013.49 1014.33 1014.85 1014.65 1014.53 1014.49 1014.57 1014.49 1014.37 1014.53 1014.53 1014.33 1014.21 1014.25 1014.41 1014.45 1014.73 1015.21 1015.25 1015.21 1015.25 1015.53 1016.01 1016.09 1016.17 1016.09 1016.21 1016.61 1016.61 1016.57 1016.73 1016.53
1007.29 1007.17 1006.85 1006.73 1006.77 1006.77 1006.93 1007.01 1007.01 1007.01 1007.01 1006.97 1007.09 1007.29 1007.45 1007.53 1007.77 1007.77 1007.85 1008.21 1008.69 1009.05 1009.33 1009.41 1009.61 1009.89 1010.05 1010.17 1010.33 1010.57 1010.93 1011.13 1011.25 1011.33 1011.41 1011.73 1012.21 1012.49 1012.37 1012.29 1012.33 1012.45 1013.33 1014.21 1014.53 1014.37 1014.33 1014.09 1013.29 1013.17 1013.73 1014.05 1014.13 1014.25 1014.73 1015.17 1015.33 1014.85 1014.77 1014.61 1014.93 1015.21 1015.33 1015.57 1015.65 1015.73 1015.89 1015.93 1016.25 1016.37 1016.45 1016.45 1016.37 1016.37
1006.13 1006.29 1006.09 1006.05 1006.17 1006.09 1006.09 1006.29 1006.33 1006.41 1006.37 1006.37 1006.53 1006.77 1007.01 1007.25 1007.37 1007.49 1007.73 1008.17 1008.45 1008.57 1008.77 1008.93 1009.01 1009.25 1009.29 1009.37 1009.65 1010.01 1010.29 1010.49 1010.77 1010.93 1011.05 1011.37 1011.81 1011.77 1011.53 1011.53 1011.57 1011.81 1012.37 1012.97 1013.29 1013.25 1013.09 1013.01 1013.29 1013.61 1013.77 1013.97 1014.33 1015.01 1015.29 1015.01 1014.89 1014.57 1014.25 1014.17 1014.65 1015.13 1015.41 1015.57 1015.81 1015.85 1015.73 1015.73 1015.97 1016.29 1016.33 1016.29 1016.33 1016.57
1005.81 1005.81 1005.77 1005.53 1005.45 1005.53 1005.69 1005.77 1005.77 1005.73 1005.69 1005.77 1005.97 1006.13 1006.45 1006.73 1006.85 1007.25 1007.49 1007.85 1008.09 1008.25 1008.41 1008.49 1008.45 1008.57 1008.65 1008.73 1008.89 1009.17 1009.41 1009.61 1009.85 1010.13 1010.41 1010.65 1010.81 1011.25 1011.69 1011.37 1010.93 1011.05 1011.65 1012.17 1012.57 1012.81 1013.09 1013.13 1013.17 1013.37 1013.49 1013.69 1013.93 1014.25 1014.69 1014.45 1014.41 1014.37 1014.29 1014.29 1014.45 1014.61 1014.97 1015.37 1015.57 1015.69 1015.85 1015.93 1016.05 1016.05 1016.05 1016.17 1016.21 1016.33
1004.93 1005.01 1005.01 1004.97 1005.05 1005.09 1005.05 1005.01 1004.97 1004.93 1004.97 1005.05 1005.21 1005.53 1005.97 1006.25 1006.49 1006.69 1006.97 1007.25 1007.57 1007.69 1007.73 1007.85 1008.01 1008.25 1008.37 1008.37 1008.65 1008.89 1009.01 1008.97 1009.05 1009.37 1009.73 1009.97 1010.33 1010.93 1011.05 1010.21 1010.05 1010.77 1011.37 1011.77 1012.21 1012.49 1012.73 1012.89 1012.81 1012.77 1013.17 1013.49 1013.53 1013.97 1014.17 1014.25 1014.33 1014.09 1013.97 1013.85 1013.97 1014.45 1014.65 1014.73 1015.09 1015.53 1015.69 1015.73 1015.77 1015.89 1016.09 1016.33 1016.37 1016.57
1004.45 1004.53 1004.61 1004.65 1004.61 1004.57 1004.57 1004.57 1004.69 1004.77 1004.69 1004.61 1004.61 1004.89 1005.41 1005.77 1005.93 1006.05 1006.29 1006.57 1006.77 1006.93 1007.13 1007.37 1007.69 1007.85 1007.97 1008.09 1008.29 1008.49 1008.41 1008.45 1008.61 1008.73 1009.05 1009.49 1010.13 1010.61 1010.85 1010.53 1010.41 1010.65 1011.21 1011.61 1012.37 1012.77 1012.77 1012.81 1012.65 1012.37 1012.49 1012.73 1013.01 1013.41 1013.61 1013.77 1013.89 1013.73 1013.73 1013.97 1014.17 1014.21 1014.21 1014.41 1014.77 1014.81 1014.77 1014.69 1015.09 1015.57 1015.81 1016.01 1016.17 1016.37
Wind_Speed
4 4 5 5 4 3 2 2 1 1 0 0 0 2 1 1 2 4 4 3 3 2 4 3 1 3 5 4 4 4 5 5 5 5 5 5 5 7 9 8 7 8 8 6 4 4 4 5 6 7 8 9 10 11 11 12 12 12 12 12 12 12 12 12 13 13 14 13 12 13 13 14 13 12
4 4 4 4 4 4 4 3 2 1 1 1 2 2 2 2 2 2 3 4 1 3 2 2 2 3 5 5 4 3 4 3 5 5 5 6 6 8 7 6 6 7 6 3 3 4 5 6 8 9 10 11 10 11 11 11 11 10 10 10 10 10 11 13 13 13 14 15 15 14 15 15 14 13
4 5 5 4 4 4 4 4 3 2 1 1 2 2 2 2 2 2 2 4 0 1 4 3 4 4 4 5 5 4 4 3 4 5 5 6 7 9 4 7 8 6 4 3 5 6 7 9 10 11 12 11 11 11 10 10 9 9 9 9 11 12 12 13 13 13 14 14 15 15 15 15 15 15
4 5 5 5 4 4 3 4 4 3 2 2 3 3 3 3 2 2 3 4 5 3 4 5 5 4 5 4 4 6 4 2 3 6 5 6 5 3 4 11 8 6 5 6 7 8 10 11 11 11 11 11 10 9 9 9 8 8 9 12 13 13 13 13 13 13 13 14 14 15 15 15 16 15
5 5 5 5 5 4 4 4 4 4 4 3 3 3 3 3 3 3 4 5 6 4 2 4 5 5 5 5 4 6 6 6 6 7 6 5 6 4 3 6 9 5 6 7 9 11 11 11 11 11 11 10 9 9 8 8 9 10 11 12 12 12 13 13 13 13 13 14 15 15 16 16 16 16
4 5 5 5 5 5 5 5 5 5 5 5 5 4 4 4 3 4 4 5 5 7 4 4 3 4 2 5 4 5 7 7 6 7 7 5 5 3 2 3 6 5 8 10 11 12 12 12 11 10 8 7 7 7 8 8 9 10 10 11 12 11 11 13 13 14 14 14 15 15 15 16 16 16
6 6 6 7 6 4 5 6 6 5 5 5 5 6 4 4 5 4 4 5 6 7 6 4 5 4 4 4 5 6 6 6 5 6 6 6 4 2 3 4 5 6 11 11 12 12 12 11 10 9 7 6 6 7 8 9 10 10 10 11 11 11 11 12 13 14 14 15 15 15 15 15 15 15
7 7 7 7 7 6 6 6 6 6 5 5 5 6 6 5 6 5 4 5 6 6 7 5 5 5 5 5 4 4 5 5 5 5 5 5 4 3 2 3 5 7 11 12 11 11 10 9 9 8 7 7 7 8 9 10 10 10 10 10 10 11 11 12 12 13 14 14 15 15 15 15 15 14
8 8 8 8 7 7 8 8 7 7 7 6 6 6 5 5 5 4 4 5 5 6 7 7 5 4 5 4 4 3 4 4 4 5 5 5 4 3 3 3 9 12 14 12 11 10 9 8 8 8 7 7 7 8 8 9 9 9 9 9 9 10 10 11 12 12 12 13 14 14 15 15 15 14
9 9 9 9 9 9 9 8 8 7 8 7 7 7 6 5 5 5 5 5 5 6 7 7 7 5 5 5 4 4 3 4 5 4 3 4 3 3 3 3 3 2 1 3 7 9 9 9 8 7 7 6 6 7 8 9 9 9 9 9 10 10 11 12 12 13 13 14 14 15 15 15 14 14
10 10 9 9 9 10 10 10 9 8 7 7 7 7 6 6 5 6 5 5 6 6 7 6 6 6 4 4 5 2 2 4 4 4 3 4 3 2 2 2 3 2 4 7 8 7 7 7 6 7 6 5 4 4 8 8 9 9 10 10 11 11 12 13 13 13 14 15 15 16 15 15 15 14
10 10 10 10 10 10 10 10 9 8 7 6 7 6 5 5 5 6 6 6 6 6 6 6 5 5 5 4 4 4 3 4 2 2 3 5 4 3 2 2 3 1 0 3 5 7 9 8 9 10 9 7 5 4 4 8 9 9 9 10 11 11 12 12 13 14 14 15 15 15 15 14 14 14
10 11 10 11 11 11 11 11 9 8 6 6 6 6 6 6 6 6 6 6 6 5 6 6 5 5 5 5 4 5 4 4 4 2 3 4 4 3 4 3 1 1 1 1 1 2 1 1 1 1 2 3 3 6 4 6 8 8 9 10 10 11 11 12 12 13 14 15 15 15 14 14 14 16
11 11 11 11 13 12 11 12 12 12 11 10 9 6 5 6 6 7 7 6 6 5 6 6 6 6 6 5 4 5 5 5 4 3 3 4 3 3 5 3 1 2 3 2 2 2 3 2 2 1 1 2 2 3 5 6 6 6 8 9 10 10 11 11 11 12 13 14 15 15 14 14 14 14
11 11 11 11 11 12 12 12 13 13 13 12 13 12 10 8 7 7 8 7 7 6 6 6 6 7 7 7 6 5 6 5 5 4 3 4 3 4 5 6 2 3 3 3 4 3 2 2 2 1 1 2 2 3 5 3 4 5 6 8 9 10 10 11 11 11 12 13 14 15 14 13 12 13
10 11 11 10 9 10 11 11 10 12 14 14 13 14 13 12 13 12 10 8 7 7 7 7 7 7 8 7 5 6 5 5 5 5 4 4 4 5 5 5 6 2 3 4 6 2 3 3 2 2 2 2 2 5 3 2 3 4 6 7 9 10 10 11 10 10 12 12 13 13 13 11 10 10
11 10 10 10 9 9 11 11 11 9 9 13 16 14 13 13 14 14 15 13 11 8 7 8 9 8 7 7 7 6 6 4 6 5 5 4 5 5 6 6 6 2 4 5 5 6 3 4 3 3 2 2 2 5 7 3 3 4 5 7 8 9 10 10 10 10 10 11 12 12 12 12 11 9
11 11 10 10 10 10 9 9 10 10 10 8 8 10 10 10 13 15 16 15 15 13 10 10 10 9 8 8 8 7 5 6 7 6 7 6 6 6 7 7 6 5 4 6 5 7 4 5 4 3 3 3 3 2 5 3 3 3 4 6 7 8 9 9 10 10 10 10 11 11 12 11 10 9
12 12 11 12 12 10 10 9 10 10 9 9 8 8 9 10 10 10 11 12 11 10 10 12 13 12 10 9 9 8 7 8 7 7 7 7 6 6 6 6 5 6 6 7 5 6 1 4 4 3 3 3 3 3 7 5 4 4 5 6 7 7 8 8 9 10 10 10 11 11 12 12 11 9
11 12 12 11 12 12 11 11 13 12 9 9 9 9 10 9 10 10 11 11 10 11 10 11 12 11 10 8 9 8 7 6 6 6 6 6 5 6 7 7 6 6 4 7 7 7 5 4 5 2 3 3 3 3 3 9 5 5 6 6 6 6 7 7 8 9 10 10 10 10 11 13 11 9
12 12 12 13 11 12 12 12 14 15 12 10 10 10 10 9 9 9 9 13 15 14 13 13 12 13 13 12 11 12 10 7 6 6 6 7 7 6 7 7 6 6 5 6 7 7 7 4 4 4 3 3 3 4 3 4 8 6 7 6 6 6 5 6 7 8 10 11 11 12 11 13 11 8
11 13 16 15 13 13 13 12 15 15 13 11 11 11 11 11 11 10 9 6 8 15 15 14 15 15 13 13 12 12 11 9 7 8 9 8 7 8 7 7 6 6 4 5 6 7 7 4 4 4 2 3 4 4 4 3 5 9 9 9 7 5 4 3 5 7 7 9 10 12 13 15 12 4
12 12 13 17 16 14 14 14 14 16 14 12 12 12 11 12 12 11 9 9 7 6 7 8 8 9 11 11 9 10 14 12 11 11 11 9 8 8 8 8 8 9 7 5 9 8 6 5 5 5 3 4 3 4 4 4 3 2 1 3 5 5 1 3 3 4 5 6 8 9 11 14 12 5
12 12 12 13 19 20 17 15 14 16 17 14 12 11 11 12 13 10 9 9 8 8 8 7 7 8 8 7 8 9 8 9 11 12 11 10 8 9 9 9 9 9 7 4 11 9 6 6 5 7 5 4 3 4 4 4 4 3 2 1 2 4 5 4 7 6 3 3 6 6 8 9 12 6
13 12 12 12 15 20 20 19 17 16 18 17 13 12 12 13 11 7 8 8 9 9 8 8 7 7 7 7 8 8 8 8 8 9 11 10 9 9 9 10 10 10 9 5 13 7 6 6 5 6 5 4 3 3 3 3 3 4 3 2 1 2 2 2 3 2 3 5 4 3 4 6 7 7
13 13 12 11 12 18 20 20 19 18 17 19 12 13 15 15 12 10 9 8 7 7 8 9 9 8 8 8 8 8 8 8 8 9 8 9 10 10 10 11 11 10 10 6 17 9 7 6 7 7 6 6 5 4 4 4 4 4 3 2 2 2 1 2 2 2 4 4 4 6 4 2 1 3
14 12 12 12 12 15 18 18 19 18 18 14 13 18 17 15 14 10 9 9 8 8 9 10 10 10 10 9 8 8 9 9 8 8 8 9 10 10 10 11 12 11 10 5 10 9 9 7 7 8 7 6 5 4 5 5 5 4 4 5 4 3 1 1 2 2 3 3 3 4 7 6 1 5
13 13 12 11 13 15 17 18 18 17 16 13 18 19 19 16 10 7 9 8 9 9 11 10 10 10 10 9 9 9 8 8 8 8 8 8 10 10 9 9 9 9 9 6 8 9 9 8 6 8 7 7 7 6 6 4 4 5 5 4 4 3 2 1 1 1 1 1 2 3 4 4 6 4
13 12 14 13 14 15 16 18 17 14 15 19 17 17 18 12 7 9 9 9 9 12 11 11 11 11 10 9 9 9 8 7 6 8 8 8 9 8 8 8 8 7 7 7 7 9 9 9 7 6 6 6 7 6 5 5 5 6 5 4 5 4 3 2 1 1 1 1 1 2 3 4 4 3
17 14 12 14 15 15 14 10 8 8 10 16 18 16 11 7 9 9 9 9 10 12 12 11 11 10 9 9 9 7 6 7 8 9 10 9 9 9 7 7 8 7 8 8 9 9 9 9 8 7 6 6 7 6 6 5 5 5 5 4 2 3 3 2 1 1 0 1 1 1 1 2 3 4
11 12 12 10 12 11 15 15 12 12 11 9 8 7 9 10 10 10 10 10 10 10 10 10 10 9 8 7 6 7 7 7 7 8 8 9 10 8 6 9 8 8 9 10 10 10 9 9 8 8 7 7 6 6 6 6 5 6 5 4 4 4 4 3 3 2 1 1 1 1 0 0 2 3
13 13 13 13 9 8 7 8 8 9 9 9 9 8 9 10 10 11 12 11 10 10 9 10 9 9 8 7 8 7 7 7 7 6 8 9 8 8 7 9 9 8 8 8 9 9 9 8 7 7 7 7 7 6 5 5 6 6 5 5 4 3 3 3 3 3 3 2 2 1 0 1 2 2
10 10 11 11 11 10 11 11 11 10 9 9 10 11 10 9 10 10 10 11 12 11 10 11 10 8 8 8 7 6 6 8 7 7 8 8 10 5 6 10 8 8 9 10 10 8 7 6 4 5 6 6 6 7 7 7 6 5 6 6 5 4 4 4 3 2 2 3 3 2 3 2 1 2
9 11 12 12 12 12 12 12 12 12 11 10 10 11 12 11 10 11 11 11 11 10 10 9 8 9 8 8 6 7 8 6 8 7 7 7 7 7 8 10 10 12 11 11 9 8 7 6 5 3 2 1 2 3 6 7 6 6 6 5 5 5 4 4 3 3 3 2 2 3 2 2 3 3
11 10 11 12 12 12 12 12 13 11 11 11 11 11 11 12 12 11 11 11 10 9 9 9 8 8 8 9 8 8 8 7 7 7 6 7 8 10 10 7 6 5 7 10 9 9 9 8 7 6 4 3 4 6 6 5 5 6 5 5 5 5 4 4 4 4 4 3 3 3 4 3 3 4
11 12 12 11 11 11 12 13 12 12 12 11 11 11 12 12 11 12 12 11 10 9 9 9 9 8 8 8 9 8 5 4 5 6 6 6 7 7 7 8 8 8 7 9 9 8 9 10 10 10 9 9 9 9 9 10 9 6 6 6 6 5 5 4 4 4 5 5 4 4 5 5 3 3
10 10 10 11 10 11 12 11 11 11 12 12 12 12 12 12 11 11 12 11 10 10 9 8 9 9 9 9 8 6 6 8 10 8 7 7 6 4 5 5 7 8 8 8 1 4 7 9 10 11 10 9 10 11 7 5 8 8 6 6 5 5 5 4 4 5 6 6 5 6 5 5 5 2
11 10 11 11 11 12 11 11 11 11 11 11 11 11 12 11 10 10 8 9 10 9 8 10 11 9 10 11 10 7 9 11 10 8 8 7 7 7 8 7 8 8 8 7 7 7 8 8 9 10 10 11 10 9 8 6 5 7 11 8 6 5 5 4 5 6 5 6 6 5 5 6 6 4
10 11 11 11 11 11 12 11 10 11 12 11 12 12 11 10 10 10 9 10 11 10 11 12 12 10 11 11 10 10 10 10 10 11 9 9 9 10 8 7 6 9 8 9 9 7 6 7 10 10 12 12 11 8 7 7 7 5 10 16 6 5 5 5 5 5 5 5 4 3 4 4 2 6
12 12 12 12 11 11 11 11 11 11 12 12 12 11 11 11 11 10 10 9 10 11 12 12 11 10 10 11 11 11 10 12 12 10 9 10 10 10 9 8 10 10 6 6 6 6 9 9 6 8 8 6 4 3 1 1 2 3 4 6 10 7 4 4 6 5 6 4 3 4 5 4 5 4
12 12 13 12 11 11 11 11 11 11 12 12 11 11 11 10 10 10 9 9 9 11 11 11 11 13 12 11 11 12 11 11 11 11 11 10 8 8 10 9 9 8 7 8 9 10 7 7 12 10 5 5 3 2 5 7 8 6 6 7 11 14 8 2 2 4 5 2 3 5 6 6 5 4
11 12 12 11 12 11 11 11 11 11 12 11 11 10 10 10 11 10 7 9 11 11 11 11 11 11 12 13 12 12 13 13 12 12 11 9 9 11 14 11 9 8 10 12 14 11 9 7 7 8 7 6 4 7 9 10 9 7 6 4 5 5 9 9 6 4 4 3 4 6 5 5 4 6
10 10 9 9 10 10 9 10 11 12 12 11 10 10 10 10 9 9 11 11 10 11 12 11 11 11 11 11 12 12 12 13 12 12 13 12 12 12 9 9 9 10 10 9 4 5 7 8 9 9 8 8 8 9 11 9 7 6 5 5 5 5 4 7 9 8 7 7 6 5 4 5 6 8
11 9 9 9 9 11 10 11 11 12 11 11 10 9 9 12 11 11 10 10 12 12 13 12 10 10 10 10 9 10 11 12 12 12 13 12 11 9 10 11 11 8 7 7 6 7 7 8 9 9 9 9 8 8 10 8 8 8 8 6 4 5 4 5 5 5 5 8 11 11 10 9 7 2
9 8 10 9 9 10 10 11 11 9 9 10 10 11 12 11 13 14 13 12 12 12 11 10 10 10 10 10 10 11 11 9 10 10 10 9 9 9 8 3 6 6 6 5 4 4 5 7 8 9 9 9 8 8 8 8 9 8 7 5 5 4 4 4 5 5 5 5 8 10 10 9 9 8
Wind_Direction
225 226 223 238 247 244 231 244 182 118 137 219 190 242 276 339 335 349 346 14 358 43 15 1 92 2 351 338 350 351 1 26 337 348 350 351 352 6 343 347 356 353 357 353 346 6 14 17 8 18 24 31 43 46 43 40 38 31 26 20 14 9 4 356 351 351 347 345 343 339 335 334 336 336
222 233 229 229 236 226 230 226 220 167 185 183 196 210 226 241 313 332 323 332 298 328 340 327 5 342 337 335 339 343 348 49 321 344 348 356 358 339 323 3 8 15 18 18 39 51 50 41 42 47 53 56 51 48 45 43 37 32 24 17 10 4 3 357 354 354 348 345 345 342 339 338 340 340
222 219 230 226 238 236 246 252 235 203 190 183 200 206 207 212 254 282 278 302 119 281 317 330 338 330 322 331 329 342 346 13 330 338 352 357 344 303 77 48 41 43 71 83 68 63 55 54 57 61 63 60 55 50 46 42 37 28 19 13 9 6 6 1 359 357 352 348 347 346 344 343 343 343
215 221 226 225 234 234 246 251 248 237 231 205 217 208 207 209 231 241 261 272 291 253 298 311 310 318 331 309 325 339 331 355 219 339 343 352 310 342 64 89 56 81 90 74 68 63 62 66 68 66 62 58 54 49 46 39 32 23 16 13 10 6 7 5 1 358 353 350 349 348 347 347 347 347
221 224 227 232 236 234 247 249 254 254 240 227 223 215 219 227 207 222 242 274 287 289 262 287 300 320 319 324 333 331 339 348 348 336 355 352 4 14 16 85 78 75 79 75 71 70 73 74 72 68 63 56 49 46 42 34 26 18 13 11 7 4 4 2 358 358 356 354 353 352 349 347 347 348
227 224 229 236 234 218 238 254 256 254 253 247 246 226 231 237 229 209 250 266 282 295 293 289 308 303 291 315 335 335 332 338 333 341 347 357 15 12 2 39 82 72 80 77 77 81 80 77 73 70 65 51 40 37 34 29 24 19 14 10 5 0 357 355 356 360 360 359 358 356 351 348 346 346
226 228 235 244 241 223 232 240 253 255 256 261 259 258 251 251 253 221 221 260 279 293 301 307 300 307 316 314 325 327 324 315 317 328 347 350 6 24 6 11 86 73 80 82 85 86 84 80 77 77 70 56 49 40 38 34 29 22 16 9 3 360 357 354 356 359 359 359 358 356 353 349 347 345
223 230 238 246 247 243 243 248 252 249 246 245 245 248 243 243 253 248 220 233 267 287 293 296 298 311 313 312 315 314 309 313 329 335 338 338 1 348 352 26 80 92 87 87 89 91 89 86 86 85 79 72 57 47 41 37 30 24 15 8 4 4 359 357 357 0 359 353 353 354 351 350 346 343
229 229 236 243 241 238 244 248 247 248 239 239 243 246 245 240 244 240 235 238 241 263 277 288 288 291 287 287 293 301 317 319 315 326 328 342 346 340 327 351 119 117 105 96 100 98 93 93 93 89 88 80 64 54 48 39 34 26 16 9 8 7 360 360 2 3 359 352 351 349 349 351 348 345
228 232 233 235 236 238 240 246 247 244 241 239 240 242 243 244 240 240 239 234 238 250 265 275 287 280 294 301 295 302 304 310 317 311 319 323 347 336 337 360 4 15 67 148 132 128 122 107 95 91 93 86 76 66 52 44 36 28 16 10 11 11 7 3 4 6 4 1 357 351 351 353 353 350
234 234 235 232 232 235 236 240 240 236 233 236 241 238 240 241 237 241 242 233 237 246 260 267 269 280 278 278 296 296 293 288 271 295 312 322 356 335 333 338 350 115 108 72 53 65 68 91 107 116 110 102 92 75 68 51 43 26 19 13 14 14 10 7 6 6 6 5 1 355 355 356 1 360
238 238 237 237 233 232 232 233 237 235 234 229 239 236 234 234 235 249 251 247 246 249 255 263 274 274 284 275 273 274 267 284 267 255 317 317 328 334 314 316 316 61 252 173 146 139 143 143 140 155 145 123 102 49 124 86 50 29 21 17 16 16 13 10 7 7 7 7 3 360 358 358 5 11
234 238 241 240 239 231 226 227 231 238 230 232 235 232 223 226 234 240 246 246 247 248 255 263 257 260 262 266 272 279 279 284 303 307 287 292 294 303 309 321 220 230 265 209 229 175 256 186 161 132 88 73 175 124 70 70 64 36 22 20 19 17 17 13 10 8 9 9 7 4 2 2 11 19
233 235 239 242 236 230 222 221 222 226 227 225 241 244 227 224 230 236 242 245 242 247 254 257 260 264 264 264 258 270 278 284 270 257 254 275 301 295 313 303 269 187 259 259 220 207 196 219 167 194 128 115 97 67 55 43 27 26 24 25 22 21 17 18 14 11 13 13 10 7 5 6 15 21
235 236 235 240 232 222 225 228 223 223 221 221 227 237 245 246 240 241 241 243 243 246 253 258 255 259 267 266 272 269 280 281 278 278 272 273 275 287 315 317 292 204 247 289 287 246 199 243 232 181 124 106 75 74 69 45 51 36 35 29 29 23 20 20 19 15 16 17 13 10 7 6 15 23
233 235 236 234 236 231 228 230 222 217 218 218 221 227 231 233 238 244 248 251 247 242 250 254 255 263 261 267 261 269 276 278 280 270 251 242 256 274 281 287 294 304 233 275 284 248 190 227 241 196 154 126 108 79 86 84 51 46 39 37 32 28 22 22 20 17 19 20 18 10 5 359 4 21
230 229 232 237 234 236 214 222 233 233 217 208 217 224 228 233 233 234 238 245 251 258 254 256 260 252 260 263 261 258 265 273 276 276 259 242 238 249 270 276 284 239 217 262 271 283 171 220 213 223 174 158 126 144 147 106 72 54 47 44 38 31 26 21 19 19 21 21 17 15 9 0 358 10
228 226 228 231 233 232 222 217 223 227 231 223 207 212 222 230 230 228 232 237 240 243 251 255 256 255 244 252 260 263 252 254 268 271 273 270 261 259 269 281 271 274 240 251 278 280 216 199 227 234 172 164 152 129 105 143 102 77 66 58 46 35 29 22 16 17 21 20 17 11 6 359 352 355
228 228 227 230 234 233 225 217 212 221 222 221 221 221 221 223 231 230 226 222 221 221 226 238 246 252 252 251 257 260 253 249 252 258 267 271 275 279 284 262 247 262 236 244 248 269 147 173 217 230 182 178 184 140 148 160 125 104 81 69 54 43 32 24 17 14 17 19 14 9 2 355 349 346
227 227 228 229 232 235 232 211 197 212 224 225 226 226 229 232 234 235 228 221 206 213 217 224 236 245 247 245 252 262 267 258 250 251 249 248 239 249 258 259 248 249 213 201 238 259 261 174 241 217 179 176 206 180 173 142 148 120 90 78 70 54 39 27 20 15 15 16 12 8 1 354 344 338
228 225 223 224 231 233 233 215 191 202 208 230 231 233 234 238 241 241 231 205 210 214 222 230 240 249 254 254 253 254 256 254 272 262 252 242 233 230 243 249 249 244 227 215 237 250 260 193 213 218 184 206 215 208 202 159 146 135 114 102 96 66 50 37 26 23 18 13 9 6 5 357 342 311
231 226 219 221 227 233 235 215 189 192 195 221 227 231 235 238 241 241 241 227 201 211 220 226 234 241 247 253 257 256 248 226 228 230 237 243 239 231 236 251 257 272 254 245 203 230 248 180 200 211 187 191 227 226 207 194 149 158 157 130 108 88 72 65 45 33 29 21 12 8 1 2 340 5
230 230 219 215 223 228 232 221 191 186 192 218 222 226 232 237 240 241 237 232 222 198 199 220 227 242 240 240 239 239 228 208 210 226 238 252 241 240 240 246 264 271 256 218 173 218 227 184 191 194 195 240 193 201 194 188 191 174 114 140 137 104 118 137 94 64 54 33 22 18 7 4 343 22
229 229 231 215 212 221 226 226 203 188 195 214 223 224 230 236 240 238 235 232 233 237 230 235 220 229 230 227 221 230 221 198 209 221 229 237 241 240 246 250 257 265 269 148 179 210 231 196 196 195 228 261 228 166 192 191 189 183 154 126 124 151 197 183 162 134 83 72 45 36 15 11 358 20
232 231 228 235 205 206 217 222 217 196 199 210 223 224 230 231 238 241 242 239 226 241 245 242 240 242 238 238 240 232 223 211 203 212 222 230 232 234 246 255 255 262 255 214 176 210 211 201 200 177 210 219 235 189 174 174 177 182 168 163 130 76 24 32 10 16 138 166 99 44 48 8 28 13
233 233 231 231 204 195 209 216 219 209 199 209 219 229 230 235 236 238 245 258 257 252 251 258 258 255 250 243 241 239 234 228 215 213 212 214 226 226 238 248 255 262 256 167 166 198 204 197 202 186 187 205 212 204 175 192 183 182 178 180 130 110 57 36 18 22 359 1 19 6 343 327 106 106
232 231 231 231 211 196 205 211 216 214 206 204 221 230 234 234 234 235 247 254 253 253 258 258 258 256 253 249 240 235 237 237 231 222 215 211 214 224 232 242 246 251 262 158 181 197 211 216 200 198 195 196 210 182 209 197 178 173 191 190 173 143 124 69 39 23 7 349 2 291 251 210 177 171
229 230 227 227 217 207 206 211 215 215 201 208 217 224 231 234 231 235 240 240 243 250 256 253 252 252 249 242 239 240 236 241 229 220 218 217 216 223 228 232 244 250 254 176 186 200 212 223 201 209 203 185 200 202 202 195 162 174 189 170 184 160 136 117 79 37 329 339 340 359 4 8 9 1
233 230 224 223 218 216 214 214 216 218 210 213 219 221 226 223 223 223 229 236 238 248 246 247 247 248 240 235 237 238 239 234 237 242 238 229 231 228 232 249 257 248 243 218 195 200 207 214 213 192 196 196 206 204 204 183 181 180 182 176 183 173 167 143 118 53 28 355 19 4 17 9 12 16
229 232 223 221 221 222 223 216 213 216 210 207 215 221 216 211 219 218 220 223 232 240 244 242 238 232 231 231 235 234 231 240 246 252 253 244 235 238 227 228 227 226 227 224 222 214 208 211 212 188 190 196 208 196 182 173 178 178 165 197 153 145 180 184 181 158 41 16 33 29 43 35 32 355
236 233 231 227 220 225 221 218 220 223 222 197 201 210 206 213 214 213 213 217 220 226 230 232 230 230 234 241 237 236 230 229 231 233 240 248 248 226 215 223 227 225 227 225 227 222 216 210 203 186 189 192 198 201 180 188 181 182 184 189 187 215 149 180 186 191 185 242 213 132 140 142 73 24
225 230 228 228 228 224 229 223 227 226 220 215 205 204 201 208 212 216 219 221 231 232 234 241 236 245 243 232 234 232 229 229 227 224 238 242 245 233 218 232 231 230 220 218 221 216 209 201 191 185 199 189 190 182 173 190 197 194 188 184 197 216 207 217 205 182 176 244 243 157 117 65 44 57
212 219 228 229 219 214 220 226 227 223 213 212 213 214 207 207 205 207 208 214 220 222 224 232 231 224 223 230 228 221 236 246 238 228 230 228 240 223 215 230 225 218 220 220 210 195 183 171 169 183 199 201 200 178 177 189 205 204 199 197 201 214 219 212 225 203 172 228 248 246 167 165 137 98
212 214 225 226 225 222 220 225 227 227 221 215 212 215 212 213 213 210 210 215 218 213 215 222 219 222 224 225 220 240 240 222 237 228 216 219 188 195 206 221 226 231 232 227 202 175 164 160 151 128 105 66 357 213 200 202 201 200 207 206 207 222 217 210 205 190 214 247 274 286 286 185 152 144
218 227 225 227 227 226 226 226 226 225 225 220 216 218 214 213 215 213 218 218 217 212 213 218 222 221 220 237 234 235 227 223 214 211 206 207 187 197 202 218 246 269 260 244 216 182 159 160 162 164 167 188 211 233 251 249 208 202 201 207 210 226 226 205 204 193 203 217 224 268 277 270 174 155
213 222 227 228 227 223 227 227 227 227 227 223 219 220 222 218 212 211 217 210 209 210 216 216 215 220 221 223 215 205 183 178 218 212 210 213 221 222 201 203 194 208 225 240 219 184 167 167 173 184 190 195 210 218 217 210 214 216 209 213 203 216 227 212 201 212 217 227 210 234 261 270 269 165
223 225 225 230 230 226 229 228 225 224 226 228 225 222 224 223 215 211 212 198 209 213 211 210 217 212 206 203 206 185 173 205 224 214 215 218 218 238 239 246 245 237 218 227 202 156 178 183 177 188 195 197 208 220 217 132 217 244 233 224 213 202 196 189 193 221 226 230 226 226 244 260 259 222
223 225 228 227 228 229 230 229 226 224 224 225 227 227 226 226 225 216 195 192 201 207 203 219 225 205 201 205 203 185 202 219 229 222 217 223 216 206 211 214 229 228 226 212 209 199 174 187 185 189 197 206 211 216 218 186 178 210 218 220 221 201 177 192 218 232 224 211 236 230 232 244 248 243
222 227 227 227 222 223 226 225 221 224 226 226 225 227 227 227 226 220 202 205 200 205 216 220 221 203 202 209 206 193 202 215 225 228 219 216 211 211 207 199 216 238 223 212 203 196 184 192 194 198 204 214 216 217 225 216 218 183 179 198 210 209 195 204 235 244 249 241 217 212 240 254 0 82
221 223 226 225 225 220 222 220 220 225 230 230 230 227 224 224 223 221 216 200 194 204 210 214 211 196 199 208 211 211 211 215 223 225 215 213 211 205 198 194 203 216 209 197 199 201 201 198 182 198 205 214 247 270 280 243 70 120 140 194 232 226 214 205 227 246 248 249 254 244 249 213 244 192
216 219 223 221 224 222 220 220 221 226 228 228 228 223 223 225 222 221 217 216 202 200 206 214 207 200 200 204 209 211 214 215 219 223 221 218 209 208 208 191 193 184 177 199 208 215 186 176 208 202 194 208 187 145 236 245 240 225 205 195 192 217 238 326 275 245 246 207 226 251 263 263 268 237
205 217 222 216 219 221 217 217 219 224 229 225 223 220 213 216 231 223 212 191 201 204 210 212 210 207 209 205 207 206 213 213 210 211 210 203 194 206 208 198 187 173 187 201 206 205 179 177 186 189 205 204 193 214 232 236 237 229 227 174 140 179 210 228 251 273 296 262 231 242 253 252 224 250
219 222 220 214 211 216 217 218 219 222 225 222 222 220 222 225 224 222 224 211 202 201 205 207 209 207 208 207 205 205 210 215 208 204 202 199 199 204 204 199 189 185 190 205 183 141 157 173 182 187 194 199 208 213 231 229 231 239 216 197 174 152 161 181 214 231 257 280 283 282 309 309 288 278
225 221 221 224 221 223 219 214 213 217 217 216 213 209 219 235 233 224 215 208 201 200 204 206 203 201 208 213 211 215 221 224 216 208 201 199 199 200 202 199 179 168 176 182 168 169 166 178 183 180 183 196 197 204 222 227 233 233 235 236 170 163 192 170 164 179 220 235 242 253 262 258 261 344
233 230 233 232 224 224 224 227 229 228 222 221 218 222 227 227 233 229 220 210 210 207 202 198 190 194 202 209 212 221 221 219 221 219 205 197 195 201 216 181 137 156 172 181 193 196 176 181 182 185 194 196 189 199 208 220 234 236 226 206 215 216 232 197 206 218 217 213 180 203 235 250 265 273